This demonstration page uses our WeatherBlox Daily Observations layout. Learn more.

Left ArrowRight Arrow

Hourly Observations for April 19, 2019

Temp ( °F °C ) Dew Point ( °F °C ) Humidity (%) Winds ( mph kmh ) Pressure ( in mb ) Visibility ( mi km ) Precip ( " mm )
12:15 am 00:15 Clear 37 2.7 33 0.6 86 86 NW 8 13 30.20 1023 10 16 N/A
12:35 am 00:35 Clear 35 1.9 32 undefined 87 87 NW 8 13 30.21 1023 10 16 N/A
12:55 am 00:55 Clear 35 1.9 32 0.1 88 88 WNW 7 11 30.22 1023 10 16 N/A
1:15 am 01:15 Clear 37 2.5 33 0.6 87 87 WNW 7 11 30.21 1023 10 16 N/A
1:35 am 01:35 Clear 35 1.8 32 undefined 88 88 NW 7 11 30.21 1023 10 16 N/A
1:55 am 01:55 Clear 35 1.5 32 undefined 90 90 NW 10 17 30.21 1023 10 16 N/A
2:15 am 02:15 Clear 34 1 31 -0.5 90 90 NW 7 11 30.22 1023 10 16 N/A
2:35 am 02:35 Clear 34 1 31 -0.5 90 90 NNW 7 11 30.22 1023 10 16 N/A
2:55 am 02:55 Clear 33 0.6 30 -0.9 90 90 NNW 5 7 30.21 1023 10 16 N/A
3:15 am 03:15 Clear 33 0.4 30 -1 90 90 WNW 9 15 30.21 1023 10 16 N/A
3:35 am 03:35 Clear 33 0.7 31 -0.7 90 90 NNW 6 9 30.21 1023 10 16 N/A
3:55 am 03:55 Clear 32 undefined 29 -1.5 90 90 W 5 7 30.22 1023 10 16 N/A
4:15 am 04:15 Clear 33 0.5 30 -0.9 90 90 W 9 15 30.21 1023 10 16 N/A
4:35 am 04:35 Clear 34 1 31 -0.5 90 90 W 9 15 30.22 1023 10 16 N/A
4:55 am 04:55 Clear 34 1.1 31 -0.3 91 91 WNW 7 11 30.23 1024 10 16 N/A
5:15 am 05:15 Clear 34 1 31 -0.5 90 90 WNW 7 11 30.24 1024 10 16 N/A
5:35 am 05:35 Clear 33 0.8 31 -0.7 90 90 NW 9 15 30.24 1024 10 16 N/A
5:55 am 05:55 Clear 33 0.8 31 -0.7 90 90 NW 7 11 30.24 1024 10 16 N/A
6:15 am 06:15 Clear 32 0.2 30 -1.2 90 90 NW 8 13 30.24 1024 10 16 N/A
6:35 am 06:35 Clear 33 0.3 30 -1.1 90 90 WNW 9 15 30.24 1024 10 16 N/A
6:55 am 06:55 Sunny 33 0.3 30 -1 91 91 WNW 10 17 30.24 1024 10 16 N/A
7:15 am 07:15 Sunny 33 0.5 30 -1 90 90 WNW 8 13 30.24 1024 10 16 N/A
7:35 am 07:35 Sunny 34 1.1 31 -0.4 90 90 WNW 7 11 30.25 1024 10 16 N/A
7:55 am 07:55 Sunny 36 2 32 undefined 87 87 N N/A 30.25 1024 10 16 N/A
8:15 am 08:15 Sunny 38 3.2 33 0.6 83 83 WNW 6 9 30.25 1024 10 16 N/A
8:35 am 08:35 Sunny 39 4.1 34 1 80 80 WNW 5 7 30.24 1024 10 16 N/A
8:55 am 08:55 Sunny 41 5.2 35 1.5 77 77 N N/A 30.23 1024 7 11 N/A
9:15 am 09:15 Sunny 43 6.2 36 2 75 75 W 3 6 30.22 1023 10 16 N/A
9:35 am 09:35 Sunny 45 7.3 36 2.2 70 70 WNW 3 6 30.21 1023 10 16 N/A
9:55 am 09:55 Sunny 47 8.6 36 2.2 64 64 W 5 7 30.18 1022 10 16 N/A
10:15 am 10:15 Sunny 49 9.4 35 1.9 60 60 WNW 3 6 30.18 1022 10 16 N/A
10:35 am 10:35 Sunny 50 10.1 35 1.9 57 57 N N/A 30.16 1021 10 16 N/A
10:55 am 10:55 Sunny 52 11.1 36 2.1 54 54 N N/A 30.15 1021 10 16 N/A
11:15 am 11:15 Sunny 54 12.1 36 2 50 50 W 6 9 30.13 1020 10 16 N/A
11:35 am 11:35 Sunny 55 12.8 35 1.6 47 47 W 3 6 30.12 1020 10 16 N/A
11:55 am 11:55 Sunny 56 13.4 35 1.7 45 45 W 5 7 30.11 1020 10 16 N/A
12:15 pm 12:15 Sunny 58 14.2 31 -0.4 37 37 SW 5 7 30.08 1019 10 16 N/A
12:35 pm 12:35 Sunny 58 14.6 30 -1.3 34 34 NNW 3 6 30.07 1018 10 16 N/A
12:55 pm 12:55 Sunny 59 15.1 31 -0.8 34 34 NW 5 7 30.06 1018 10 16 N/A
1:15 pm 13:15 Sunny 60 15.8 31 -0.6 33 33 N N/A 30.05 1018 10 16 N/A
1:35 pm 13:35 Sunny 62 16.4 31 -0.6 32 32 NNW 5 7 30.02 1017 10 16 N/A
1:55 pm 13:55 Sunny 62 16.7 30 -1.3 29 29 W 6 9 30.01 1016 10 16 N/A
2:15 pm 14:15 Sunny 63 17.2 30 -0.9 29 29 WSW 7 11 30.00 1016 10 16 N/A
2:35 pm 14:35 Sunny 65 18.4 31 -0.5 28 28 SSE 8 13 29.98 1015 10 16 N/A
2:55 pm 14:55 Sunny 66 18.8 32 -0.2 28 28 WNW 6 9 29.97 1015 10 16 N/A
3:15 pm 15:15 Sunny 65 18.5 31 -0.8 27 27 WNW 6 9 29.96 1015 10 16 N/A
3:35 pm 15:35 Sunny 68 19.8 33 0.4 27 27 NNW 8 13 29.94 1014 10 16 N/A
3:55 pm 15:55 Sunny 67 19.7 32 undefined 27 27 WSW 5 7 29.92 1013 10 16 N/A
4:15 pm 16:15 Sunny 68 19.8 32 undefined 27 27 N N/A 29.91 1013 10 16 N/A
4:35 pm 16:35 Sunny 68 20.1 33 0.5 27 27 WSW 12 19 29.90 1013 10 16 N/A
4:55 pm 16:55 Sunny 69 20.5 32 0.2 26 26 W 9 15 29.89 1012 10 16 N/A
5:15 pm 17:15 Sunny 70 21 34 1.3 27 27 SSW 7 11 29.88 1012 10 16 N/A
5:35 pm 17:35 Sunny 70 21 33 0.6 26 26 WNW 9 15 29.87 1012 10 16 N/A
5:55 pm 17:55 Sunny 70 21.2 33 0.7 26 26 SW 10 17 29.87 1012 10 16 N/A
6:15 pm 18:15 Sunny 70 21.2 33 0.6 25 25 SW 7 11 29.86 1011 10 16 N/A
6:35 pm 18:35 Sunny 70 21 33 0.4 25 25 SSW 8 13 29.86 1011 10 16 N/A
6:55 pm 18:55 Sunny 69 20.7 34 0.9 27 27 SSW 10 17 29.86 1011 10 16 N/A
7:15 pm 19:15 Sunny 68 20.1 35 1.6 29 29 S 10 17 29.86 1011 10 16 N/A
7:35 pm 19:35 Sunny 67 19.3 35 1.9 31 31 S 10 17 29.85 1011 10 16 N/A
7:55 pm 19:55 Sunny 64 17.7 37 2.5 36 36 S 9 15 29.86 1011 10 16 N/A
8:15 pm 20:15 Sunny 60 15.8 37 2.8 42 42 S 9 15 29.87 1011 10 16 N/A
8:35 pm 20:35 Clear 58 14.5 37 2.5 45 45 S 8 13 29.88 1012 10 16 N/A
8:55 pm 20:55 Clear 56 13.3 36 2.3 48 48 S 7 11 29.89 1012 10 16 N/A
9:15 pm 21:15 Clear 55 12.6 36 2.2 49 49 SSE 9 15 29.90 1012 10 16 N/A
9:35 pm 21:35 Clear 54 12.2 37 2.5 52 52 SSE 9 15 29.91 1013 10 16 N/A
9:55 pm 21:55 Clear 54 12.1 37 2.5 52 52 SSE 9 15 29.91 1013 10 16 N/A
10:15 pm 22:15 Clear 53 11.5 37 2.5 54 54 SSE 7 11 29.92 1013 10 16 N/A
10:35 pm 22:35 Clear 53 11.6 36 2.2 53 53 SSE 8 13 29.92 1013 10 16 N/A
10:55 pm 22:55 Clear 54 12.3 35 1.9 49 49 SE 7 11 29.91 1013 10 16 N/A
11:15 pm 23:15 Clear 54 12.3 35 1.8 49 49 S 9 15 29.91 1013 10 16 N/A
11:35 pm 23:35 Clear 54 12.2 35 1.8 49 49 SSE 10 17 29.90 1013 10 16 N/A
11:55 pm 23:55 Clear 53 11.9 35 1.7 50 50 S 10 17 29.90 1013 10 16 N/A

Powered by AerisWeather